sat.trackr.live / text

‹ back to catalog

TIANHUI 2-02A

NORAD 49071 · 2021-074A

PAYLOAD ACTIVE UNKNOWN

§ Identity

Operator
Country
PRC
Launch date
2021-08-18
Launch site
TAISC
Launch vehicle
Mass (kg)
RCS (m²)

External: N2YO · Heavens-Above · Gunter

§ Orbital elements

Epoch: 2026-09-09T12:12:26.948736Z

Period
94.94 min
Inclination
97.4858°
Eccentricity
0.0001775
Mean motion
15.16740865 rev/d
Perigee alt
514.5 km
Apogee alt
516.9 km
Semi-major
6,893.8 km
B*
5.9304e-5
RAAN
254.6427°
Arg perigee
112.0367°
Mean anomaly
248.1055°
Rev number
28,005

§ Raw data

TIANHUI 2-02A1 49071U 21074A   26252.50864524  .00001096  00000+0  59304-4 0  99962 49071  97.4858 254.6427 0001775 112.0367 248.1055 15.16740865280057

JSON: /api/v1/satellites/49071 · /tle

For live sub-satellite position, see the globe view (requires WebGL).

§ Visibility from observer

Set your observer location to see the next 7 days of passes ≥ 10°. The values pass through the URL so the page stays shareable.

No JS? Fill the form by hand. The geolocation button needs JavaScript.